Winner, SD

1:45 PM CDT on September 23, 2019 (GMT -0500)
Winner

Weather History for KICR - August, 2019

Change the Weather History Date:

Saturday, August 17, 2019

  Actual Average Record
Temperature  
Mean Temperature 75 °F 75 °F  
Max Temperature 88 °F 87 °F 93 °F (2016)
Min Temperature 61 °F 62 °F 47 °F (2012)
Degree Days  
Heating Degree Days 0 0  
Month to date heating degree days 1 0  
Since 1 June heating degree days 39 59  
Since 1 July heating degree days 1 5  
Cooling Degree Days 10 10  
Month to date cooling degree days 146 184  
Year to date cooling degree days 657 690  
Since 1 June cooling degree days 636 660  
Growing Degree Days 25 (Base 50)    
Moisture  
Dew Point 63 °F    
Average Humidity 68    
Maximum Humidity 90    
Minimum Humidity 46    
Precipitation  
Precipitation 0.00 in 0.09 in 0.83 in (2017)
Month to date precipitation 3.22 1.46  
Year to date precipitation 19.77 16.14  
Sea Level Pressure  
Sea Level Pressure 29.70 in    
Wind  
Wind Speed 12 mph (SSE)    
Max Wind Speed 29 mph    
Max Gust Speed 41 mph    
Visibility 10 miles    
Events Thunderstorm    
T = Trace of Precipitation, MM = Missing Value Source: NWS Daily Summary

Daily Weather History Graph

Daily Weather History Graph

Search for Another Location

Airport or City:

Astronomy

Aug. 17, 2019 Rise Set
Actual Time 6:46 AM CDT 8:39 PM CDT
Civil Twilight 6:15 AM CDT 9:10 PM CDT
Nautical Twilight 5:38 AM CDT 9:47 PM CDT
Astronomical Twilight 4:57 AM CDT 10:28 PM CDT
Moon 10:05 PM CDT (8/17) 8:38 AM CDT (8/17)
Length of Visible Light 14h 54m
Length of Day
13h 53m
Waning Gibbous, 96% of the Moon is Illuminated
Aug 17
Waning Gibbous
Aug 23
Last Quarter
Aug 30
New
Sep 5
First Quarter
Sep 13
Full

Hourly Weather History & Observations

Time (CDT) Temp. Heat Index Dew Point Humidity Pressure Visibility Wind Dir Wind Speed Gust Speed Precip Events Conditions
12:10 AM 70.0 °F - 63.0 °F 78% 29.85 in 10.0 mi SSW 13.8 mph - N/A Thunderstorm Clear
12:20 AM 71.1 °F - 63.0 °F 75% 29.85 in 10.0 mi SW 11.5 mph - N/A Thunderstorm Thunderstorm
12:35 AM 71.1 °F - 62.1 °F 73% 29.83 in 10.0 mi South 16.1 mph 24.2 mph N/A   Partly Cloudy
12:53 AM 71.1 °F - 62.1 °F 73% 29.78 in 10.0 mi SSW 16.1 mph - N/A   Partly Cloudy
1:53 AM 70.0 °F - 61.0 °F 73% 29.75 in 10.0 mi SSW 11.5 mph - N/A   Clear
2:53 AM 69.1 °F - 60.1 °F 73% 29.72 in 10.0 mi SSW 9.2 mph - N/A   Clear
3:53 AM 66.0 °F - 60.1 °F 81% 29.72 in 10.0 mi ESE 3.5 mph - N/A   Clear
4:53 AM 63.0 °F - 59.0 °F 87% 29.72 in 10.0 mi ESE 6.9 mph - N/A   Clear
5:53 AM 64.0 °F - 59.0 °F 84% 29.75 in 10.0 mi SSE 12.7 mph - N/A   Clear
6:53 AM 64.9 °F - 60.1 °F 84% 29.76 in 10.0 mi South 8.1 mph - N/A   Clear
7:53 AM 66.0 °F - 60.1 °F 81% 29.76 in 10.0 mi South 12.7 mph - N/A   Clear
8:53 AM 71.1 °F - 63.0 °F 75% 29.75 in 10.0 mi South 16.1 mph 25.3 mph N/A   Clear
9:53 AM 75.0 °F - 64.9 °F 71% 29.73 in 10.0 mi South 15.0 mph 23.0 mph N/A   Clear
10:53 AM 79.0 °F - 68.0 °F 69% 29.71 in 10.0 mi South 15.0 mph 20.7 mph N/A   Clear
11:53 AM 80.1 °F 82.3 °F 66.9 °F 64% 29.70 in 10.0 mi South 12.7 mph 21.9 mph N/A   Clear
12:53 PM 84.0 °F 87.0 °F 68.0 °F 58% 29.66 in 10.0 mi SSE 12.7 mph - N/A   Clear
1:53 PM 84.9 °F 87.6 °F 66.9 °F 55% 29.63 in 10.0 mi South 11.5 mph - N/A   Clear
2:53 PM 87.1 °F 89.2 °F 66.0 °F 49% 29.61 in 10.0 mi SSE 11.5 mph - N/A   Partly Cloudy
3:53 PM 87.1 °F 88.9 °F 64.9 °F 48% 29.60 in 10.0 mi SE 13.8 mph 24.2 mph N/A   Clear
4:53 PM 82.9 °F 85.4 °F 66.9 °F 58% 29.58 in 10.0 mi ESE 12.7 mph - N/A   Scattered Clouds
5:19 PM 81.0 °F 83.8 °F 68.0 °F 65% 29.61 in 10.0 mi SE 8.1 mph - N/A Thunderstorm Clear
5:34 PM 82.0 °F 84.9 °F 68.0 °F 62% 29.60 in 10.0 mi SE 9.2 mph - N/A   Clear
5:43 PM 82.0 °F 84.5 °F 66.9 °F 60% 29.57 in 10.0 mi South 11.5 mph - N/A Thunderstorm Partly Cloudy
5:53 PM 84.9 °F 88.2 °F 68.0 °F 57% 29.53 in 10.0 mi South 6.9 mph - N/A Thunderstorm Partly Cloudy
6:05 PM 82.9 °F 85.4 °F 66.9 °F 58% 29.58 in 10.0 mi SSE 6.9 mph - N/A   Scattered Clouds
6:53 PM 72.0 °F - 63.0 °F 73% 29.60 in 10.0 mi NNW 21.9 mph 40.3 mph N/A   Mostly Cloudy
7:04 PM 70.0 °F - 60.1 °F 71% 29.60 in 10.0 mi North 11.5 mph 33.4 mph N/A   Partly Cloudy
7:53 PM 70.0 °F - 62.1 °F 76% 29.63 in 10.0 mi NNW 15.0 mph - N/A   Clear
8:02 PM 69.1 °F - 61.0 °F 75% 29.66 in 10.0 mi NNE 15.0 mph 24.2 mph N/A   Clear
8:53 PM 66.0 °F - 60.1 °F 81% 29.65 in 10.0 mi NW 12.7 mph 19.6 mph N/A   Clear
9:17 PM 66.9 °F - 62.1 °F 84% 29.73 in 10.0 mi North 17.3 mph 26.5 mph N/A   Mostly Cloudy
9:28 PM 66.0 °F - 62.1 °F 87% 29.72 in 10.0 mi North 17.3 mph 27.6 mph N/A   Scattered Clouds
9:53 PM 66.0 °F - 61.0 °F 84% 29.73 in 10.0 mi North 12.7 mph 23.0 mph N/A   Scattered Clouds
10:01 PM 66.0 °F - 61.0 °F 84% 29.77 in 10.0 mi North 10.4 mph - N/A   Mostly Cloudy
10:50 PM 66.2 °F - 60.8 °F 83% 29.81 in 10.0 mi North 9.2 mph 20.7 mph N/A   Scattered Clouds
10:53 PM 64.9 °F - 60.1 °F 84% 29.78 in 10.0 mi North 9.2 mph 19.6 mph N/A   Scattered Clouds
11:53 PM 64.0 °F - 60.1 °F 87% 29.79 in 10.0 mi North 12.7 mph - N/A   Mostly Cloudy